Blythe, CA

10:22 PM PST on February 19, 2018 (GMT -0800)
Blythe

Weather History for KBLH - February, 2012

Change the Weather History Date:

Friday, February 24, 2012

  Actual Average Record
Temperature  
Mean Temperature 66 °F -  
Max Temperature 79 °F 69 °F 86 °F (1986)
Min Temperature 52 °F 45 °F 34 °F (1996)
Cooling Degree Days 2    
Growing Degree Days 16 (Base 50)    
Moisture  
Dew Point 15 °F    
Average Humidity 14    
Maximum Humidity 21    
Minimum Humidity 7    
Precipitation  
Precipitation 0.00 in - - ()
Sea Level Pressure  
Sea Level Pressure 30.03 in    
Wind  
Wind Speed 13 mph (North)    
Max Wind Speed 20 mph    
Max Gust Speed 25 mph    
Visibility 10 miles    
Events      
Averages and records for this station are not official NWS values.
T = Trace of Precipitation, MM = Missing Value Source: NWS Daily Summary

Daily Weather History Graph

Daily Weather History Graph

Search for Another Location

Airport or City:

Trip Planner

Search our weather history database for the weather conditions in past years. The results will help you decide how hot, cold, wet, or windy it might be!

Date:

Astronomy

Feb. 24, 2012 Rise Set
Actual Time 6:13 AM PST 5:30 PM PST
Civil Twilight 5:48 AM PST 5:56 PM PST
Nautical Twilight 5:19 AM PST 6:25 PM PST
Astronomical Twilight 4:50 AM PST 6:53 PM PST
Moon 7:21 AM PST (2/24) 8:25 PM PST (2/24)
Length of Visible Light 12h 07m
Length of Day
11h 17m
Waxing Crescent, 8% of the Moon is Illuminated
Feb 24
Waxing Crescent
Feb 29
First Quarter
Mar 8
Full
Mar 14
Last Quarter
Mar 22
New

Hourly Weather History & Observations

Time (PST) Temp. Dew Point Humidity Pressure Visibility Wind Dir Wind Speed Gust Speed Precip Events Conditions
12:52 AM 66.9 °F 21.9 °F 18% 29.94 in 10.0 mi North 16.1 mph - N/A   Clear
1:52 AM 64.9 °F 21.9 °F 19% 29.96 in 10.0 mi North 12.7 mph - N/A   Clear
2:52 AM 62.1 °F 21.0 °F 21% 29.96 in 10.0 mi NNW 13.8 mph - N/A   Clear
3:52 AM 64.0 °F 19.0 °F 18% 29.99 in 10.0 mi North 17.3 mph 25.3 mph N/A   Clear
4:52 AM 63.0 °F 19.0 °F 18% 30.01 in 10.0 mi North 17.3 mph - N/A   Clear
5:52 AM 62.1 °F 17.1 °F 18% 30.03 in 10.0 mi North 19.6 mph - N/A   Clear
6:52 AM 61.0 °F 17.1 °F 18% 30.07 in 10.0 mi NNW 10.4 mph 21.9 mph N/A   Clear
8:52 AM 68.0 °F 14.0 °F 12% 30.11 in 10.0 mi North 18.4 mph 24.2 mph N/A   Clear
9:52 AM 71.1 °F 12.9 °F 11% 30.12 in 10.0 mi NNW 16.1 mph - N/A   Clear
10:52 AM 73.0 °F 12.9 °F 10% 30.11 in 10.0 mi North 15.0 mph - N/A   Clear
11:52 AM 75.0 °F 12.0 °F 9% 30.09 in 10.0 mi North 12.7 mph 20.7 mph N/A   Clear
12:52 PM 77.0 °F 10.0 °F 8% 30.06 in 10.0 mi NNE 13.8 mph - N/A   Clear
1:52 PM 78.1 °F 9.0 °F 7% 30.04 in 10.0 mi North 8.1 mph - N/A   Clear
2:52 PM 79.0 °F 9.0 °F 7% 30.02 in 10.0 mi North 5.8 mph - N/A   Clear
3:52 PM 79.0 °F 8.1 °F 7% 30.01 in 10.0 mi NNE 6.9 mph - N/A   Clear
4:52 PM 75.0 °F 18.0 °F 12% 30.01 in 10.0 mi East 8.1 mph - N/A   Clear
5:52 PM 71.1 °F 19.0 °F 14% 30.02 in 10.0 mi ESE 3.5 mph - N/A   Clear
6:52 PM 68.0 °F 18.0 °F 15% 30.02 in 10.0 mi Calm Calm - N/A   Clear
7:52 PM 64.0 °F 17.1 °F 16% 30.03 in 10.0 mi WSW 4.6 mph - N/A   Clear
9:52 PM 55.9 °F 9.0 °F 15% 30.04 in 10.0 mi NW 4.6 mph - N/A   Clear
10:52 PM 54.0 °F 9.0 °F 17% 30.05 in 10.0 mi NNW 6.9 mph - N/A   Clear
11:52 PM 52.0 °F 9.0 °F 18% 30.04 in 10.0 mi North 4.6 mph - N/A   Clear